Weather History for Fountain Dale, PA

Change the Weather History Date:

Thursday, October 13, 2011

  Actual Average (KHGR) Record (KHGR)
Temperature  
Mean Temperature 62 °F -  
Max Temperature 66 °F 62 °F 79 °F (2001)
Min Temperature 57 °F 44 °F 32 °F (2012)
Degree Days  
Heating Degree Days 4    
Growing Degree Days 12 (Base 50)    
Moisture  
Dew Point 58 °F    
Average Humidity 93    
Maximum Humidity 100    
Minimum Humidity 87    
Precipitation  
Precipitation 0.55 in - - ()
Sea Level Pressure  
Sea Level Pressure 29.69 in    
Wind  
Wind Speed 1 mph (NE)    
Max Wind Speed 7 mph    
Max Gust Speed -    
Visibility 2 miles    
Events Fog , Rain , Thunderstorm    
Averages and records for this station are not official NWS values.
T = Trace of Precipitation, MM = Missing Value Source: NWS Daily Summary

Daily Weather History Graph

Daily Weather History Graph

Search for Another Location

Airport:

Trip Planner

Search our weather history database for the weather conditions in past years. The results will help you decide how hot, cold, wet, or windy it might be!

Date:

Astronomy

Oct. 13, 2011 Rise Set
Actual Time 7:17 AM EDT 6:33 PM EDT
Civil Twilight 6:50 AM EDT 7:00 PM EDT
Nautical Twilight 6:19 AM EDT 7:32 PM EDT
Astronomical Twilight 5:47 AM EDT 8:03 PM EDT
Moon 7:08 PM EDT (10/13) 8:47 AM EDT (10/13)
Length of Visible Light 12h 10m
Length of Day
11h 16m
Full, 98% of the Moon is Illuminated
Oct 13
Full
Oct 19
Last Quarter
Oct 26
New
Nov 2
First Quarter
Nov 10
Full

Hourly Weather History & Observations

Time (EDT) Temp. Dew Point Humidity Pressure Visibility Wind Dir Wind Speed Gust Speed Precip Events Conditions
12:09 AM 57.2 °F 53.6 °F 88% 29.86 in 2.0 mi Calm Calm - 0.01 in Rain Light Rain
12:53 AM 57.0 °F 55.0 °F 93% 29.84 in 3.0 mi Calm Calm - 0.04 in Rain Light Rain
1:06 AM 57.2 °F 53.6 °F 88% 29.84 in 2.0 mi Calm Calm - 0.01 in Rain Light Rain
1:21 AM 57.2 °F 53.6 °F 88% 29.84 in 1.8 mi Calm Calm - 0.03 in Rain Light Rain
1:30 AM 57.2 °F 53.6 °F 88% 29.84 in 2.0 mi Calm Calm - 0.03 in Rain Light Rain
1:53 AM 57.0 °F 54.0 °F 89% 29.83 in 1.8 mi Calm Calm - 0.05 in Rain Light Rain
2:09 AM 57.2 °F 53.6 °F 88% 29.83 in 2.5 mi Calm Calm - 0.00 in Rain Light Rain
2:45 AM 57.2 °F 53.6 °F 88% 29.82 in 2.5 mi Calm Calm - 0.01 in   Overcast
2:53 AM 57.0 °F 55.0 °F 93% 29.81 in 2.0 mi Calm Calm - 0.01 in   Overcast
3:04 AM 57.2 °F 55.4 °F 94% 29.81 in 1.5 mi Calm Calm - 0.01 in   Overcast
3:53 AM 57.0 °F 55.0 °F 93% 29.80 in 1.8 mi Calm Calm - 0.03 in Rain Light Rain
4:34 AM 57.2 °F 55.4 °F 94% 29.79 in 2.0 mi ENE 3.5 mph - 0.01 in Rain Light Rain
4:53 AM 57.0 °F 55.0 °F 93% 29.78 in 2.0 mi Calm Calm - 0.02 in Rain Light Rain
5:53 AM 57.0 °F 55.0 °F 93% 29.79 in 2.0 mi Calm Calm - 0.02 in Rain Light Rain
6:16 AM 57.2 °F 55.4 °F 94% 29.79 in 0.8 mi Calm Calm - 0.01 in   Overcast
6:32 AM 57.2 °F 55.4 °F 94% 29.78 in 1.2 mi Calm Calm - 0.02 in Rain Light Rain
6:48 AM 57.2 °F 55.4 °F 94% 29.77 in 3.0 mi Calm Calm - 0.02 in   Overcast
6:53 AM 57.0 °F 55.0 °F 93% 29.77 in 5.0 mi Calm Calm - 0.02 in   Overcast
7:07 AM 57.2 °F 55.4 °F 94% 29.77 in 1.8 mi Calm Calm - N/A   Overcast
7:29 AM 57.2 °F 55.4 °F 94% 29.77 in 2.5 mi Calm Calm - N/A   Overcast
7:53 AM 57.0 °F 55.0 °F 93% 29.77 in 1.0 mi Variable 3.5 mph - 0.00 in Rain Light Rain
8:53 AM 57.0 °F 55.0 °F 93% 29.78 in 1.8 mi Variable 3.5 mph - 0.02 in   Overcast
9:04 AM 57.2 °F 55.4 °F 94% 29.78 in 2.5 mi Variable 3.5 mph - N/A   Overcast
9:32 AM 57.2 °F 55.4 °F 94% 29.77 in 1.5 mi Calm Calm - N/A   Overcast
9:53 AM 57.9 °F 55.9 °F 93% 29.75 in 1.8 mi Variable 4.6 mph - N/A   Overcast
10:23 AM 57.2 °F 55.4 °F 94% 29.76 in 1.5 mi Calm Calm - 0.00 in Rain Light Rain
10:53 AM 57.9 °F 55.9 °F 93% 29.74 in 1.2 mi Calm Calm - 0.02 in Rain Light Rain
11:04 AM 59.0 °F 55.4 °F 88% 29.74 in 2.0 mi Variable 3.5 mph - 0.00 in Rain Light Rain
11:14 AM 57.2 °F 55.4 °F 94% 29.74 in 3.0 mi Variable 6.9 mph - 0.00 in Rain Light Rain
11:23 AM 57.2 °F 55.4 °F 94% 29.74 in 3.0 mi Calm Calm - 0.01 in Rain Light Rain
11:37 AM 57.2 °F 55.4 °F 94% 29.74 in 1.8 mi NNE 3.5 mph - 0.01 in Rain Light Rain
11:53 AM 57.9 °F 55.9 °F 93% 29.74 in 1.5 mi Calm Calm - 0.03 in Rain Light Rain
12:06 PM 59.0 °F 55.4 °F 88% 29.74 in 3.0 mi Calm Calm - 0.04 in Rain Light Rain
12:27 PM 59.0 °F 57.2 °F 94% 29.72 in 3.0 mi NE 3.5 mph - 0.06 in Rain Light Rain
12:39 PM 60.8 °F 57.2 °F 88% 29.72 in 1.8 mi ENE 5.8 mph - 0.06 in Rain Light Rain
12:53 PM 59.0 °F 57.0 °F 93% 29.71 in 1.0 mi NE 4.6 mph - 0.06 in   Overcast
1:12 PM 59.0 °F 57.2 °F 94% 29.71 in 1.2 mi NNE 4.6 mph - 0.01 in   Overcast
1:53 PM 60.1 °F 57.9 °F 93% 29.68 in 1.5 mi NE 4.6 mph - 0.01 in   Overcast
2:28 PM 60.8 °F 57.2 °F 88% 29.66 in 0.8 mi NE 4.6 mph - N/A   Overcast
2:53 PM 60.1 °F 57.9 °F 93% 29.65 in 1.5 mi Variable 3.5 mph - 0.01 in   Overcast
3:43 PM 60.8 °F 59.0 °F 94% 29.64 in 2.0 mi NE 3.5 mph - 0.01 in Rain Light Rain
3:53 PM 61.0 °F 59.0 °F 93% 29.63 in 1.2 mi ENE 3.5 mph - 0.04 in Rain Light Rain
4:02 PM 60.8 °F 59.0 °F 94% 29.63 in 1.5 mi Calm Calm - 0.01 in Rain Light Rain
4:18 PM 62.6 °F 59.0 °F 88% 29.62 in 3.0 mi Variable 3.5 mph - 0.02 in Rain Light Rain
4:27 PM 62.6 °F 60.8 °F 94% 29.62 in 2.0 mi ENE 5.8 mph - 0.03 in Rain Light Rain
4:37 PM 62.6 °F 60.8 °F 94% 29.62 in 5.0 mi Variable 3.5 mph - 0.03 in Rain Light Rain
4:53 PM 62.1 °F 60.1 °F 93% 29.61 in 6.0 mi Calm Calm - 0.03 in   Overcast
5:09 PM 62.6 °F 60.8 °F 94% 29.61 in 3.0 mi ENE 3.5 mph - N/A   Overcast
5:26 PM 62.6 °F 60.8 °F 94% 29.61 in 1.2 mi Calm Calm - N/A   Overcast
5:53 PM 62.1 °F 60.1 °F 93% 29.60 in 1.0 mi Calm Calm - 0.01 in Rain Light Rain
6:46 PM 62.6 °F 60.8 °F 94% 29.61 in 0.8 mi Calm Calm - 0.02 in Rain , Thunderstorm Light Thunderstorms and Rain
6:53 PM 62.1 °F 60.1 °F 93% 29.60 in 0.5 mi Calm Calm - 0.03 in Fog , Rain , Thunderstorm Light Thunderstorms and Rain
7:11 PM 62.6 °F 60.8 °F 94% 29.61 in 1.8 mi Calm Calm - 0.02 in Rain Light Rain
7:17 PM 62.6 °F 60.8 °F 94% 29.60 in 3.0 mi Calm Calm - 0.02 in Rain Light Rain
7:29 PM 62.6 °F 60.8 °F 94% 29.59 in 2.5 mi Variable 4.6 mph - 0.04 in Rain Light Rain
7:39 PM 62.6 °F 60.8 °F 94% 29.60 in 4.0 mi NE 6.9 mph - 0.04 in Rain Light Rain
7:53 PM 63.0 °F 61.0 °F 93% 29.58 in 0.8 mi NE 5.8 mph - 0.04 in   Overcast
8:10 PM 62.6 °F 60.8 °F 94% 29.59 in 0.2 mi Calm Calm - 0.01 in Fog Fog
8:24 PM 62.6 °F 60.8 °F 94% 29.59 in 0.5 mi Calm Calm - 0.01 in Fog Fog
8:49 PM 62.6 °F 60.8 °F 94% 29.59 in 4.0 mi Calm Calm - 0.01 in   Overcast
8:53 PM 63.0 °F 61.0 °F 93% 29.57 in 5.0 mi Calm Calm - 0.01 in   Overcast
9:38 PM 62.6 °F 62.6 °F 100% 29.57 in 3.0 mi Calm Calm - 0.01 in Rain Light Rain
9:44 PM 62.6 °F 60.8 °F 94% 29.57 in 1.8 mi Variable 3.5 mph - 0.01 in   Overcast
9:55 PM 62.6 °F 62.6 °F 100% 29.57 in 3.0 mi Calm Calm - N/A   Overcast
10:14 PM 64.4 °F 62.6 °F 94% 29.57 in 3.0 mi Calm Calm - N/A   Overcast
10:53 PM 66.0 °F 64.0 °F 93% 29.54 in 7.0 mi Calm Calm - 0.01 in   Overcast
11:16 PM 66.2 °F 62.6 °F 88% 29.55 in 8.0 mi Calm Calm - N/A   Overcast
11:34 PM 66.2 °F 62.6 °F 88% 29.55 in 5.0 mi Calm Calm - 0.01 in Rain Rain
11:53 PM 66.0 °F 62.1 °F 87% 29.52 in 6.0 mi Calm Calm - 0.04 in Rain Light Rain